STARLINK-30453, 57910

Orbit data source: Space-Track

STARLINK-30453, 57910 is a payload satellite owned by SpaceX/Seattle (US) in LEO that was launched on Wed, 20 Sep 2023 UTC via an FALCON 9 launch vehicle from the Air Force Eastern Test Range (AFETR). Payload-class satellites include a variety of spacecraft equipped with specific instruments for various scientific and technological missions. These include communications satellites like Starlink; space stations such as the ISS; scientific satellites like the Hubble; Earth observation satellites from companies like Planet Labs, Umbra, and HawkEye 360; GPS; miniature CubeSats for education and research; and military/defense satellites.

Loading next visibility...
Identifier
57910, 2023-146V
Orbit
LEO
Country
Flag of USUS
Related business
Manufacturer
SpaceX/Seattle
Mission
Operational Commercial Communications
Bus & Motor
STARLINK V2M, Unknown motor
Mass
730 kg wet, ~700 kg dry
Launch date (UTC)
2023-09-20 (3 years ago)
Launch vehicle
FALCON 9
Launch site
Air Force Eastern Test Range (AFETR)
Object type
Payload
Rocket body
Debris
Shape & HBR
Box + 2 Pan, 17.7 m
Radar Cross Section
33.884 m², Large (>1 m²)

Expand to show TLE details & history
Last TLE update: 2 days ago

TLE from 2 days ago
0 STARLINK-30453
1 57910U 23146V   26171.15841244 -.00000046  00000-0  78342-5 0  9994
2 57910  43.0030  92.4407 0001063 261.5806  98.4925 15.27574689151703
Epoch: 2026-06-20T03:48Z
TLE epoch observation values (Epoch: 2026-06-20T03:48:06.834Z)
Latitude
-0.00005°
Longitude
127.03512°
Altitude
482.949 km
Speed
7.626 km/s
True Right ascension
06h 09m 45s
True Declination
0° 00' 00"
Sunlit
Object was in daylight at epoch
Visualization orbit readout
Latitude
Unknown
Longitude
Unknown
Altitude
Unknown
Speed
Unknown
Apparent Right ascension
Unknown
Apparent Declination
Unknown
Sunlit
N/A
Visualization observer readout
Local Sidereal Time
00:31:43
Azimuth
Unknown
Elevation
Unknown
Doppler factor
Unknown
Orbital elements
Apogee altitude
485.739 km
Perigee altitude
484.28 km
Semi-major axis
6,863.147 km
Eccentricity
0.00011
Inclination
43.003°
RAAN
92.4407°
Arg. of periapsis
261.5806°
True anomaly
98.50455°
Mean anomaly
98.4925°
Eccentric anomaly
98.49852°
Mean motion
3.81732 °/min
Orbital period
94.31 mins
BSTAR
0.0000078342
Loading maneuver chart data...
Computing Atmospheric mass density...
Loading historical data...
Loading historical data...
Loading historical data...
Loading historical data...
Loading historical data...
Loading historical data...
Loading historical data...

Documentation

Showing up to 5 results
|